EDT,Max TemperatureF,Mean TemperatureF,Min TemperatureF,Max Dew PointF,MeanDew PointF,Min DewpointF,Max Humidity, Mean Humidity, Min Humidity, Max Sea Level PressureIn, Mean Sea Level PressureIn, Min Sea Level PressureIn, Max VisibilityMiles, Mean VisibilityMiles, Min VisibilityMiles, Max Wind SpeedMPH, Mean Wind SpeedMPH, Max Gust SpeedMPH,PrecipitationIn, CloudCover, Events, WindDirDegrees
2014-3-1,44,35,23,25,17,9,86,53,34,30.19,30.11,30.07,15,11,7,15,12,23,0.00,8,,271
2014-3-2,15,14,10,10,5,1,86,67,53,30.26,30.24,30.22,15,7,1,17,13,21,0.00,8,Snow,30
2014-3-3,10,6,1,0,-4,-6,78,63,52,30.43,30.40,30.32,20,12,10,14,10,,0.00,2,,30
2014-3-4,24,15,6,9,3,-6,73,52,31,30.35,30.25,30.19,10,10,8,12,8,,0.00,8,,161
2014-3-5,24,20,17,12,9,7,74,61,50,30.47,30.39,30.28,10,10,10,18,12,,0.00,5,,56
2014-3-6,37,26,15,18,10,1,55,45,36,30.43,30.29,30.16,20,14,10,18,12,22,0.00,2,,121
2014-3-7,48,38,28,28,25,18,80,57,46,30.11,30.00,29.93,10,10,10,14,9,21,0.00,1,,213
2014-3-8,35,30,24,32,27,19,93,88,80,30.13,30.05,29.96,7,3,0,14,11,,0.00,8,Snow,342
2014-3-9,37,26,14,25,20,12,93,69,52,30.22,30.10,29.93,15,7,6,16,8,,0.00,5,,258
2014-3-10,57,48,39,39,34,30,70,55,38,29.78,29.68,29.59,10,8,7,17,13,29,0.00,5,,246
2014-3-11,55,48,41,39,35,32,87,65,41,29.72,29.68,29.65,7,6,4,12,8,,0.00,7,Rain,286
2014-3-12,35,24,14,36,24,9,100,89,74,29.90,29.56,29.32,6,2,0,23,17,40,0.00,8,Rain-Snow,10
2014-3-13,26,18,12,10,6,-2,67,56,31,30.14,30.09,29.99,20,15,10,16,13,,0.00,5,,279
2014-3-14,59,46,33,39,29,21,62,48,36,29.91,29.75,29.62,20,11,7,22,16,38,0.00,6,Rain,218
2014-3-15,41,36,30,32,28,23,81,72,65,30.18,30.02,29.82,10,10,7,21,15,32,0.00,7,,304
2014-3-16,24,22,19,14,12,9,74,66,59,30.34,30.26,30.17,20,11,6,17,15,24,0.00,6,Snow,50
2014-3-17,33,24,14,19,13,3,67,55,32,30.04,29.96,29.89,20,20,20,17,12,,0.00,2,,75
2014-3-18,51,40,28,32,28,21,75,57,44,30.04,30.00,29.94,15,11,10,14,9,,0.00,3,,132
2014-3-19,50,47,39,46,37,30,93,68,50,29.83,29.75,29.67,10,8,6,17,16,29,0.00,8,Rain,227
2014-3-20,37,35,33,30,27,23,81,69,56,30.03,29.96,29.88,20,11,6,17,15,29,0.00,8,,281
2014-3-21,44,34,24,34,27,21,93,65,43,30.10,29.99,29.80,20,13,10,17,4,25,0.00,4,,157
2014-3-22,44,40,35,37,30,27,87,75,65,30.13,30.04,29.77,15,11,4,17,13,29,0.00,8,,298
2014-3-23,42,32,21,19,13,7,80,61,34,30.33,30.29,30.24,10,6,3,17,13,23,0.00,6,Snow,359
2014-3-24,28,24,19,19,14,10,74,61,51,30.30,30.22,30.10,15,10,2,16,11,23,0.00,6,Snow,259
2014-3-25,37,28,19,25,19,10,93,72,33,30.04,29.96,29.90,15,7,1,17,12,23,0.00,6,Snow,284
2014-3-26,26,20,14,10,8,3,79,56,43,30.33,30.29,30.22,10,10,7,17,10,25,0.00,3,,336
2014-3-27,48,37,26,32,20,14,66,46,36,30.19,30.00,29.80,10,9,7,18,15,29,0.00,8,Rain,179
2014-3-28,55,47,37,48,40,34,87,76,70,30.17,29.91,29.69,20,14,6,21,15,32,0.00,8,Rain,278
2014-3-29,37,34,32,34,32,30,100,91,81,30.14,30.01,29.93,10,5,0,20,14,32,0.00,8,Rain-Snow,47
2014-3-30,37,34,30,28,25,16,86,71,41,30.14,30.11,30.06,20,13,10,17,13,23,0.00,2,,306
2014-3-31,53,38,24,27,22,14,69,42,27,30.23,30.17,30.09,20,14,10,9,3,,0.00,3,,42